Theta_e
348 348 349 349 349 350 350 351 351 350 349 348 347 345 344 346 349 350 350 348 349 348 348 349 349 349 347 347 346 349 346 342 337 337 339 339 340 341 342 344 344 345 345
349 349 349 350 350 350 350 352 352 350 348 348 346 343 344 348 350 352 350 349 349 348 348 349 351 350 352 349 348 348 344 338 336 337 339 338 339 341 341 344 344 343 342
350 349 349 349 350 350 351 351 350 350 347 347 348 348 349 350 351 351 353 351 349 350 348 349 349 351 350 352 349 348 344 339 339 335 339 340 339 340 340 341 344 344 341
350 348 348 349 349 350 350 351 351 350 349 347 349 349 348 350 351 352 352 353 349 349 349 349 349 351 353 352 350 348 345 337 339 339 338 338 341 338 341 339 340 341 341
350 349 348 348 348 349 350 350 350 350 349 349 349 349 350 350 351 352 353 352 352 349 349 350 350 351 351 351 347 347 346 340 338 339 339 339 338 340 340 340 339 340 339
350 350 348 347 348 348 350 350 350 350 350 349 349 349 350 350 351 352 352 352 352 352 350 352 351 351 352 350 348 346 346 342 336 336 339 338 338 338 340 341 340 339 338
351 351 351 349 349 349 350 350 350 350 350 350 350 350 350 350 351 351 352 351 351 351 352 351 349 352 350 349 348 346 346 344 338 330 339 339 338 337 337 337 338 338 337
350 350 352 350 348 349 349 350 350 350 350 350 350 350 350 351 351 351 351 351 351 351 350 348 349 348 350 350 350 347 346 344 340 334 335 338 339 337 337 336 336 337 335
349 349 348 349 348 347 348 350 350 350 350 351 350 351 351 351 351 351 351 351 351 352 349 345 347 350 350 351 351 349 347 345 340 337 334 336 338 337 337 335 335 335 335
346 348 350 349 348 347 348 350 350 351 350 350 351 351 351 351 351 351 351 351 351 350 351 348 350 353 352 352 351 350 348 345 341 340 337 334 337 337 337 336 335 334 334
343 344 347 349 348 347 346 349 350 350 351 351 351 351 351 351 351 352 351 350 349 349 350 347 350 352 350 351 352 350 348 344 343 339 338 336 336 335 336 336 336 335 334
341 342 342 344 346 348 347 347 349 350 350 350 351 352 352 352 352 352 352 350 350 349 349 349 349 353 352 351 351 351 348 346 345 342 339 338 337 335 337 336 337 335 335
342 343 342 345 348 347 346 346 348 348 349 350 351 352 352 353 353 352 352 352 350 350 350 351 350 351 353 351 350 351 350 347 346 344 342 340 338 336 336 336 336 336 337
342 345 345 345 347 346 346 345 347 347 348 350 351 352 353 353 353 352 352 352 351 351 350 350 350 349 350 352 351 351 351 348 347 345 344 343 340 337 337 336 338 338 337
341 344 346 348 348 347 346 345 346 347 348 350 351 352 352 353 353 353 353 353 353 352 350 350 350 350 349 351 351 350 350 349 348 346 345 344 342 338 333 332 337 338 338
338 343 347 348 349 347 346 345 346 347 348 350 351 351 352 353 353 354 354 353 354 353 353 352 351 351 350 350 349 350 350 349 348 348 347 345 342 342 339 333 334 337 339
339 342 346 349 351 345 345 345 346 347 349 350 351 351 353 353 354 354 354 354 355 355 354 353 352 352 351 348 347 348 350 350 349 348 348 347 343 343 341 338 332 334 336
335 337 338 342 344 343 342 344 345 348 350 351 352 352 353 354 354 354 354 354 354 355 356 355 354 353 351 349 348 348 349 350 350 349 349 348 345 343 343 340 339 337 337
337 334 332 335 341 343 343 344 347 348 351 352 353 353 353 354 354 355 354 354 354 354 354 355 356 355 354 351 348 348 347 350 351 350 349 348 346 345 343 343 343 341 340
331 332 331 333 337 342 341 344 348 350 352 352 352 353 353 354 355 355 355 355 354 354 353 354 355 355 355 354 351 349 349 350 352 350 348 347 346 345 344 342 340 342 341
333 330 331 336 339 339 340 347 347 350 349 351 352 353 354 354 355 355 356 356 356 356 356 355 354 354 354 354 352 350 350 352 351 349 347 346 345 345 343 342 341 341 340
332 329 334 335 337 341 339 346 351 347 349 350 353 355 356 355 355 356 356 357 357 356 357 358 358 356 355 353 353 350 349 350 349 348 345 345 347 345 342 339 338 338 339
345 330 336 343 346 347 345 349 349 349 351 351 352 355 357 357 357 358 358 358 357 357 357 359 359 358 357 354 352 352 350 349 348 347 344 345 346 342 339 339 339 340 336
352 347 356 357 357 353 351 350 349 348 349 353 355 356 357 358 359 359 359 359 360 360 359 360 360 359 355 352 351 350 346 340 342 338 333 336 340 339 339 339 339 336 335
353 355 357 357 358 359 361 360 353 352 352 352 353 354 355 356 356 355 359 361 361 361 361 360 359 350 340 339 342 340 335 339 339 336 333 336 336 336 337 337 335 334 334
352 352 352 352 353 356 358 356 358 356 354 353 351 345 342 342 342 343 344 353 358 359 360 357 353 341 344 337 337 335 337 338 329 331 334 335 333 332 329 329 330 331 331
Wind_Speed
24 27 28 27 27 26 26 26 26 27 25 24 22 20 20 18 17 17 16 13 14 15 16 15 13 11 9 7 5 3 3 1 1 1 2 3 4 5 5 5 5 5 5
21 25 29 30 30 31 31 29 29 29 30 26 26 21 22 19 19 17 18 16 14 15 15 18 14 12 9 8 5 6 3 2 2 1 2 3 3 3 3 4 4 4 5
24 22 27 33 33 32 33 34 36 36 34 29 22 19 15 16 16 19 19 20 19 18 16 17 17 14 11 8 7 7 6 3 3 3 1 3 2 4 1 2 2 3 3
23 21 25 31 35 35 33 32 32 34 35 36 27 27 26 24 24 22 21 21 23 21 18 18 16 16 11 10 9 9 8 5 4 3 3 1 1 3 4 4 4 4 3
25 25 26 35 37 35 33 32 32 33 33 35 33 30 28 25 21 20 21 25 22 25 22 20 17 17 15 13 11 11 11 8 5 6 5 3 3 2 3 4 6 7 6
25 25 34 34 33 33 32 31 32 35 34 35 39 35 32 29 23 22 21 21 21 22 25 20 19 18 16 16 13 13 13 11 8 7 7 6 4 6 5 4 5 7 6
25 25 24 26 31 33 36 35 35 35 36 37 36 39 37 33 30 28 24 21 19 20 21 23 22 19 20 18 16 15 15 15 12 10 9 8 7 5 6 4 2 4 5
23 25 24 27 31 35 37 37 37 37 38 40 40 41 39 35 34 30 28 25 23 22 23 25 24 23 21 21 19 17 17 17 15 14 13 10 10 8 7 6 6 4 5
25 27 27 32 33 33 37 40 39 39 38 40 40 38 38 37 33 33 32 28 26 22 25 26 25 25 25 24 22 19 20 20 18 16 15 13 11 9 8 7 6 7 4
22 25 24 29 36 36 38 39 41 40 43 42 40 39 40 40 40 33 33 32 31 32 23 26 25 24 24 25 26 21 21 22 19 16 16 17 13 12 10 9 8 7 7
22 23 22 30 36 36 33 38 39 39 37 39 40 39 39 39 37 35 36 37 38 38 35 32 28 26 24 25 27 26 22 25 22 20 18 17 15 13 12 12 11 10 9
20 18 21 24 28 33 34 38 39 38 41 41 39 40 38 38 38 39 39 40 39 41 41 39 33 28 26 25 28 28 23 26 24 22 20 18 16 18 15 14 14 13 12
13 17 16 17 20 31 36 37 38 42 41 39 39 38 39 38 40 41 41 38 40 40 40 36 35 32 29 30 28 29 27 27 26 24 24 22 21 20 18 18 16 15 13
12 12 14 17 18 27 31 34 37 39 38 38 39 39 40 43 43 42 40 40 41 41 41 41 40 39 35 32 29 29 29 28 28 27 26 25 25 25 23 22 18 16 15
12 13 14 15 15 22 28 33 34 33 36 36 37 43 43 42 40 39 40 41 39 40 44 42 41 42 39 35 33 33 32 30 31 28 28 28 29 29 29 27 22 18 17
14 13 14 14 16 21 27 31 33 36 38 39 41 41 38 39 42 39 38 38 40 39 38 39 40 39 40 38 42 41 34 31 34 31 28 25 32 33 30 25 25 24 22
13 10 12 14 14 25 31 31 35 32 36 37 38 35 36 37 39 38 37 40 40 37 39 39 39 41 43 43 49 47 39 34 35 34 30 24 28 34 31 29 29 31 29
16 14 13 13 21 26 28 32 29 33 34 34 33 32 33 36 33 33 38 39 38 40 39 41 41 40 43 46 49 51 49 38 35 35 31 27 27 31 32 31 32 27 26
16 13 17 20 18 22 28 27 28 31 31 33 34 36 36 35 33 36 40 39 35 36 40 39 38 41 42 45 52 51 46 42 36 32 30 30 32 32 28 25 20 19 21
16 14 21 15 15 21 21 24 26 28 31 35 40 37 35 34 37 42 37 34 36 37 33 33 36 38 38 40 46 51 41 40 36 31 32 37 35 29 24 26 22 21 22
16 20 17 14 15 9 18 22 24 27 39 31 27 29 32 33 30 25 25 25 25 22 26 32 33 33 34 37 43 48 46 36 33 35 36 38 35 29 26 26 24 23 18
13 12 10 10 6 8 19 20 22 30 18 19 21 23 23 24 25 27 26 25 23 18 14 25 29 30 30 32 34 41 50 38 34 41 44 42 37 32 26 23 20 18 19
6 5 8 7 3 3 12 16 16 14 14 16 18 19 20 21 22 23 24 23 23 28 34 35 28 25 24 31 41 42 41 50 42 33 32 37 35 33 27 26 20 20 20
7 11 12 9 9 7 6 8 13 14 15 17 20 20 19 19 21 20 21 22 26 27 25 18 25 23 23 28 34 36 33 36 19 8 18 16 31 25 24 24 22 23 20
10 13 12 10 14 12 12 10 8 10 9 9 10 12 13 16 16 16 17 20 22 23 23 23 21 21 17 17 22 24 26 25 22 20 23 11 16 18 18 22 27 26 24
13 12 15 15 15 15 16 14 11 12 14 14 12 12 15 17 17 15 11 11 19 25 25 25 23 15 19 18 20 26 27 35 26 35 15 23 20 18 19 22 23 25 23
Wind_Direction
199 203 207 207 208 208 207 207 206 209 207 208 210 215 220 224 231 237 239 241 233 233 238 237 239 247 248 256 252 218 234 247 282 177 111 81 81 76 81 89 77 73 80
197 201 204 207 208 208 210 209 209 209 211 210 208 207 214 223 225 230 234 237 234 236 241 233 232 239 237 251 236 212 191 173 169 156 164 186 140 97 77 85 89 86 89
198 201 202 205 209 210 210 210 210 211 212 208 207 211 216 221 224 229 233 235 238 238 241 238 234 234 238 242 237 230 217 194 177 192 214 182 200 174 134 95 103 101 105
204 204 205 209 209 212 211 212 213 209 213 212 205 204 210 216 223 225 229 231 237 237 238 243 233 232 235 240 247 239 224 212 189 173 210 211 147 207 187 197 192 189 184
203 204 205 207 211 212 212 210 210 212 210 210 208 210 217 223 226 227 227 234 235 235 238 235 236 240 239 243 248 240 229 235 218 202 173 185 193 192 245 216 194 215 216
209 210 212 211 210 211 211 211 207 211 211 210 213 212 216 218 222 227 228 231 234 233 231 229 233 240 237 239 243 242 230 233 236 223 209 207 208 200 205 230 233 234 217
211 212 211 209 208 206 206 204 204 208 209 211 213 215 219 220 220 223 229 229 227 222 221 225 233 235 236 235 236 237 231 230 231 236 227 227 222 201 201 227 215 242 222
211 214 211 208 209 207 204 203 204 208 207 209 213 217 219 219 223 227 227 226 226 226 223 227 230 232 233 229 233 232 230 226 226 232 228 226 224 216 209 212 206 206 214
212 214 214 211 210 207 205 204 203 205 205 209 212 215 216 216 219 221 225 229 228 229 226 226 231 234 230 226 228 224 228 227 224 228 227 218 217 218 222 216 215 247 252
215 218 216 214 213 210 207 204 204 203 205 206 210 212 214 217 218 219 220 222 225 232 224 226 228 227 228 226 225 221 225 225 222 220 222 219 218 215 214 218 217 222 243
218 217 215 214 214 213 207 204 203 205 204 205 208 211 213 214 216 216 221 225 229 233 230 229 226 226 225 226 225 222 221 222 222 221 224 223 219 216 212 214 217 218 218
225 223 220 214 210 210 207 205 205 204 206 207 206 209 213 212 212 215 217 223 224 231 233 231 229 227 226 227 226 223 220 221 220 219 219 219 216 219 214 215 216 220 217
223 227 224 213 207 206 205 205 205 209 206 203 204 207 210 210 213 216 217 217 221 225 228 227 226 225 225 228 231 224 223 225 224 221 219 218 215 217 212 210 215 216 217
220 219 220 215 208 207 204 204 206 207 207 203 204 206 209 210 214 215 215 216 218 218 221 224 225 228 226 227 227 224 222 225 227 225 224 222 220 220 216 217 214 212 215
215 212 218 213 204 203 203 204 206 204 203 203 205 210 210 210 213 214 213 215 215 217 220 220 221 224 224 223 222 221 220 220 226 226 226 227 229 230 234 228 221 215 220
250 221 221 218 205 202 202 202 204 202 197 200 207 210 209 209 211 211 211 213 215 215 216 215 215 215 219 220 225 228 220 219 225 226 228 227 235 237 236 233 231 228 218
246 241 218 213 206 205 201 203 204 198 198 202 210 209 208 210 211 210 208 213 214 214 215 215 215 216 219 220 228 229 222 222 224 228 226 220 230 237 228 229 237 234 236
260 247 237 228 221 220 210 207 198 196 199 206 208 209 208 211 210 209 212 214 212 212 214 216 215 217 220 220 224 230 228 225 225 228 225 220 227 237 230 226 236 231 229
260 252 257 246 232 215 213 198 192 194 197 204 208 208 206 207 205 209 214 215 212 214 217 218 218 217 220 220 223 218 218 224 224 223 219 219 227 239 231 234 233 235 229
249 249 248 239 239 223 205 192 194 192 202 207 211 208 207 208 207 213 214 214 214 216 218 222 223 225 227 224 222 216 213 218 214 211 214 226 230 229 224 210 219 231 224
238 239 244 235 230 222 191 198 196 201 212 211 210 207 208 209 214 219 220 220 223 232 227 224 221 223 225 228 228 218 213 215 207 206 203 213 213 214 207 197 200 217 226
264 230 227 235 257 207 190 203 202 211 206 201 204 205 203 208 210 207 208 207 199 205 244 251 247 235 223 227 234 231 215 214 223 213 206 196 196 193 188 188 181 206 231
237 178 160 138 86 175 197 198 203 181 171 180 194 198 198 202 208 205 204 202 195 207 201 211 229 235 221 225 228 234 226 219 219 230 213 190 176 175 174 177 180 190 191
126 135 128 123 106 102 142 176 170 173 176 176 186 187 190 193 202 209 211 207 207 208 215 203 224 221 213 211 216 223 226 221 207 107 29 124 136 173 178 158 176 188 194
120 126 120 116 101 97 89 96 156 167 166 173 171 174 186 181 173 189 206 212 209 214 218 215 211 176 166 186 208 197 165 160 121 87 116 176 175 185 178 173 183 192 193
106 110 103 98 94 91 83 77 95 125 132 126 130 136 138 140 140 129 107 201 216 221 223 209 195 179 189 161 170 158 159 161 146 135 164 166 191 183 174 172 177 185 184